Retour au catalogue

ONEWEB-0679

ActifCommunicationsPO
NORAD 56715·PAYLOAD·🇬🇧 United Kingdom

Lancé May 20, 2023 depuis Vandenberg Space Force Base

Loading…

Prochains Passages (prochaines 24 heures)

TLE

FraisSource: CelesTrak SupGP

Époque: Sep 14, 2026, 22:14 UTC

1 56715C 23068F   26257.92687917 -.00002706  00000+0 -70862-2 0  2572
2 56715  87.9157 210.9517 0002079  94.9988 297.2927 13.16600197    16

Suivez ONEWEB-0679 en temps réel avec AllMySat

Download on the App Store